星链-30082 (STARLINK-30082 )

导读

STARLINK-30082是美国SpaceX公司星链(Starlink)低轨宽带互联网星座的组成卫星,于2023年8月7日发射入轨。星链星座目标是为全球提供覆盖广泛的高速互联网服务,该卫星运行在近地轨道,采用Ku和Ka波段通信技术,配备氪工质霍尔推进器,具备自主避撞能力,设计寿命约5至7年,退役后会主动离轨再入大气层烧毁。

基本信息
目录编号:
57509
目录名称:
STARLINK-30082
国际标识:
2023-113Q
轨道中心:
EARTH
卫星名称:
星链-30082
卫星全名:
星链-30082 (STARLINK-30082 )
卫星状态:
在轨 (已飞行1046 天)
发射日期:
2023-08-07 UTC
国别 :
美国 (US)
星等 :
--
轨道信息
数据来源 国际轨道数据
星历时间: 2026-06-18T08:55:31+0800
13小时前
查看轨道信息
半长轴: 6861.203km
偏心率: 0.0001096
轨道倾角: 43.002°
近地点辐角 270.493°
升交点赤经 169.235°
平近点角 89.579°
近地点: 482.314km
远地点: 483.818km
周期: 94.267分钟
每日圈数: 15.275744
详细信息
固有亮度:
5
最大亮度:
0.3
卫星平台:
Starlink v2.0 mini
覆盖范围:
全球
运营商:
太空探索技术公司
运营商所在国:
美国
制造商(研发单位):
太空探索技术公司
制造商所在国:
美国
使用方式:
暂无
卫星简介
星链(Starlink)计划是由太空探索技术公司(SpaceX)提出的一个巨型低轨卫星互联网星座项目,计划在2019年至2024年间在太空搭建由约1.2万颗卫星组成的“星链”网络,其中1584颗将部署在地球上空550千米处的近地轨道,并从2020年开始工作。该卫星仍在工作。
2D轨道图
3D轨道图
轨道高度分析图
轨道倾角分析图
轨道综合分析图
查看轨道综合分析图